Location: Keppel Henge
(44.7900°N, 80.9447°W)
Time: 02:42:57
(UTC-05:00)

OTV 5 (USA 277) - Pass Details

Date: 14 October 2017
Orbit: 404 x 417 km, 43.0° (Epoch: 07 September)

Event Time Altitude Azimuth Distance (km) Brightness Sun altitude
Rises 21:09:13 0° 270° (W) 2,355 ? -27.0°
Reaches altitude 10° 21:11:20 10° 267° (W) 1,491 ? -27.4°
Enters shadow 21:12:30 20° 262° (W) 1,038 ? -27.6°
